Location: Aragoneses
(41.0275°N, 4.3847°W)
Time: 14:49:29
(UTC+00:00)

Tiangong - Pass Details

Date: 19 February 2026
Orbit: 382 x 391 km, 41.5° (Epoch: 5 March)

Event Time Altitude Azimuth Distance (km) Brightness Sun altitude
Rises 19:26:03 0° 280° (W) 2,256 3.4 -17.5°
Reaches altitude 10° 19:28:12 10° 273° (W) 1,400 2.0 -17.9°
Maximum altitude 19:31:12 41° 201° (SSW) 562 -1.2 -18.5°
Enters shadow 19:31:44 37° 172° (S) 607 -1.3 -18.6°
